• In Uzbekistan
  • List of Countries
  • For 7 days
  • Water Temperature
  • Satellite Maps
  • Weather Map
  • Weather Widgets
  • user-avatar
    Login

    Hourly Weather Kariba

    Today, 24 January, Wednesday

    Time Temperature Precipitation Wind Pressure Humidity
    00:00 +19°C° 0 mm 5 mps 724 mmHg 24%
    01:00 +17°C° 0 mm 5 mps 724 mmHg 26%
    02:00 +16°C° 0 mm 5 mps 724 mmHg 27%
    03:00 +16°C° 0 mm 5 mps 723 mmHg 28%
    04:00 +15°C° 0 mm 4 mps 723 mmHg 30%
    05:00 +15°C° 0 mm 4 mps 723 mmHg 32%
    06:00 +15°C° 0 mm 4 mps 724 mmHg 32%
    07:00 +15°C° 0 mm 5 mps 724 mmHg 32%
    08:00 +15°C° 0 mm 5 mps 724 mmHg 33%
    09:00 +19°C° 0 mm 5 mps 724 mmHg 29%
    10:00 +21°C° 0 mm 6 mps 725 mmHg 25%
    11:00 +23°C° 0 mm 6 mps 725 mmHg 21%
    12:00 +24°C° 0 mm 6 mps 724 mmHg 19%
    13:00 +26°C° 0 mm 6 mps 724 mmHg 17%
    14:00 +27°C° 0 mm 6 mps 723 mmHg 15%
    15:00 +27°C° 0 mm 5 mps 723 mmHg 15%
    16:00 +27°C° 0 mm 5 mps 723 mmHg 15%
    17:00 +26°C° 0 mm 5 mps 723 mmHg 15%
    18:00 +25°C° 0 mm 5 mps 723 mmHg 17%
    19:00 +22°C° 0 mm 4 mps 723 mmHg 19%
    20:00 +21°C° 0 mm 4 mps 723 mmHg 21%
    21:00 +20°C° 0 mm 4 mps 724 mmHg 23%
    22:00 +19°C° 0 mm 4 mps 724 mmHg 25%
    23:00 +19°C° 0 mm 4 mps 724 mmHg 26%

    Tomorrow, 25 January, Thursday

    Time Temperature Precipitation Wind Pressure Humidity
    00:00 +18°C° 0 mm 4 mps 724 mmHg 28%
    01:00 +18°C° 0 mm 4 mps 724 mmHg 30%
    02:00 +17°C° 0 mm 4 mps 724 mmHg 32%
    03:00 +15°C° 0 mm 4 mps 724 mmHg 34%
    04:00 +15°C° 0 mm 4 mps 724 mmHg 35%
    05:00 +14°C° 0 mm 4 mps 724 mmHg 37%
    06:00 +15°C° 0 mm 4 mps 724 mmHg 37%
    07:00 +15°C° 0 mm 4 mps 724 mmHg 37%
    08:00 +15°C° 0 mm 4 mps 725 mmHg 36%
    09:00 +19°C° 0 mm 5 mps 725 mmHg 31%
    10:00 +21°C° 0 mm 6 mps 725 mmHg 26%
    11:00 +23°C° 0 mm 7 mps 726 mmHg 21%
    12:00 +24°C° 0 mm 7 mps 725 mmHg 19%
    13:00 +26°C° 0 mm 7 mps 724 mmHg 18%
    14:00 +27°C° 0 mm 7 mps 724 mmHg 16%
    15:00 +26°C° 0 mm 6 mps 723 mmHg 16%
    16:00 +26°C° 0 mm 6 mps 723 mmHg 17%
    17:00 +26°C° 0 mm 6 mps 723 mmHg 18%
    18:00 +23°C° 0 mm 6 mps 723 mmHg 20%
    19:00 +22°C° 0 mm 5 mps 724 mmHg 22%
    20:00 +20°C° 0 mm 5 mps 724 mmHg 25%
    21:00 +20°C° 0 mm 5 mps 724 mmHg 27%
    22:00 +19°C° 0 mm 5 mps 725 mmHg 29%
    23:00 +18°C° 0 mm 4 mps 725 mmHg 30%

    Day after tomorrow, 26 January, Friday

    Time Temperature Precipitation Wind Pressure Humidity
    00:00 +17°C° 0 mm 5 mps 725 mmHg 33%
    01:00 +16°C° 0 mm 5 mps 725 mmHg 35%
    02:00 +16°C° 0 mm 5 mps 724 mmHg 37%
    03:00 +15°C° 0 mm 5 mps 724 mmHg 39%
    04:00 +15°C° 0 mm 5 mps 724 mmHg 42%
    05:00 +14°C° 0 mm 5 mps 724 mmHg 44%
    06:00 +14°C° 0 mm 6 mps 725 mmHg 45%
    07:00 +14°C° 0 mm 7 mps 725 mmHg 47%
    08:00 +13°C° 0 mm 8 mps 726 mmHg 48%
    09:00 +16°C° 0 mm 8 mps 726 mmHg 44%
    10:00 +17°C° 0 mm 8 mps 727 mmHg 40%
    11:00 +20°C° 0 mm 8 mps 727 mmHg 36%
    12:00 +21°C° 0 mm 8 mps 726 mmHg 32%
    13:00 +22°C° 0 mm 8 mps 726 mmHg 29%
    14:00 +23°C° 0 mm 7 mps 725 mmHg 26%
    15:00 +23°C° 0 mm 7 mps 725 mmHg 25%
    16:00 +22°C° 0 mm 7 mps 724 mmHg 25%
    17:00 +22°C° 0 mm 7 mps 724 mmHg 24%
    18:00 +21°C° 0 mm 7 mps 725 mmHg 25%
    19:00 +20°C° 0 mm 6 mps 725 mmHg 26%
    20:00 +17°C° 0 mm 6 mps 726 mmHg 27%
    21:00 +16°C° 0 mm 6 mps 726 mmHg 27%
    22:00 +16°C° 0 mm 5 mps 726 mmHg 27%
    23:00 +15°C° 0 mm 5 mps 726 mmHg 26%

    27 January, Saturday

    Time Temperature Precipitation Wind Pressure Humidity
    00:00 +14°C° 0 mm 5 mps 726 mmHg 27%
    01:00 +14°C° 0 mm 5 mps 726 mmHg 27%
    02:00 +13°C° 0 mm 5 mps 725 mmHg 28%
    03:00 +12°C° 0 mm 5 mps 725 mmHg 28%
    04:00 +11°C° 0 mm 6 mps 725 mmHg 28%
    05:00 +10°C° 0 mm 6 mps 725 mmHg 28%
    06:00 +10°C° 0 mm 6 mps 726 mmHg 29%
    07:00 +10°C° 0 mm 6 mps 726 mmHg 29%
    08:00 +10°C° 0 mm 7 mps 727 mmHg 30%
    09:00 +12°C° 0 mm 7 mps 727 mmHg 26%
    10:00 +15°C° 0 mm 7 mps 727 mmHg 23%
    11:00 +17°C° 0 mm 7 mps 727 mmHg 20%
    12:00 +18°C° 0 mm 7 mps 726 mmHg 17%
    13:00 +21°C° 0 mm 7 mps 726 mmHg 15%
    14:00 +22°C° 0 mm 7 mps 725 mmHg 12%
    15:00 +22°C° 0 mm 7 mps 725 mmHg 12%
    16:00 +22°C° 0 mm 7 mps 724 mmHg 12%
    17:00 +22°C° 0 mm 7 mps 724 mmHg 12%
    18:00 +20°C° 0 mm 6 mps 724 mmHg 13%
    19:00 +19°C° 0 mm 6 mps 725 mmHg 15%
    20:00 +16°C° 0 mm 5 mps 725 mmHg 16%
    21:00 +16°C° 0 mm 5 mps 725 mmHg 17%
    22:00 +15°C° 0 mm 5 mps 726 mmHg 18%
    23:00 +14°C° 0 mm 5 mps 726 mmHg 19%

    28 January, Sunday

    Time Temperature Precipitation Wind Pressure Humidity
    00:00 +14°C° 0 mm 5 mps 726 mmHg 20%
    01:00 +13°C° 0 mm 5 mps 725 mmHg 21%
    02:00 +12°C° 0 mm 5 mps 725 mmHg 23%
    03:00 +12°C° 0 mm 5 mps 725 mmHg 24%
    04:00 +10°C° 0 mm 5 mps 725 mmHg 26%
    05:00 +10°C° 0 mm 5 mps 725 mmHg 27%
    06:00 +10°C° 0 mm 5 mps 725 mmHg 28%
    07:00 +10°C° 0 mm 6 mps 726 mmHg 28%
    08:00 +10°C° 0 mm 6 mps 726 mmHg 28%
    09:00 +14°C° 0 mm 7 mps 726 mmHg 24%
    10:00 +16°C° 0 mm 7 mps 726 mmHg 20%
    11:00 +18°C° 0 mm 7 mps 726 mmHg 16%
    12:00 +21°C° 0 mm 7 mps 726 mmHg 14%
    13:00 +22°C° 0 mm 7 mps 725 mmHg 12%
    14:00 +24°C° 0 mm 7 mps 724 mmHg 10%
    15:00 +23°C° 0 mm 7 mps 724 mmHg 11%
    16:00 +23°C° 0 mm 7 mps 724 mmHg 11%
    17:00 +23°C° 0 mm 7 mps 724 mmHg 12%
    18:00 +21°C° 0 mm 6 mps 724 mmHg 13%
    19:00 +19°C° 0 mm 5 mps 725 mmHg 15%
    20:00 +17°C° 0 mm 5 mps 725 mmHg 16%
    21:00 +16°C° 0 mm 5 mps 725 mmHg 17%
    22:00 +16°C° 0 mm 5 mps 725 mmHg 18%
    23:00 +15°C° 0 mm 5 mps 725 mmHg 18%

    29 January, Monday

    Time Temperature Precipitation Wind Pressure Humidity
    00:00 +15°C° 0 mm 5 mps 725 mmHg 20%
    01:00 +14°C° 0 mm 5 mps 725 mmHg 22%
    02:00 +13°C° 0 mm 5 mps 724 mmHg 23%
    03:00 +13°C° 0 mm 5 mps 724 mmHg 25%
    04:00 +12°C° 0 mm 5 mps 724 mmHg 27%
    05:00 +12°C° 0 mm 5 mps 724 mmHg 29%
    06:00 +12°C° 0 mm 5 mps 725 mmHg 30%
    07:00 +11°C° 0 mm 6 mps 725 mmHg 31%
    08:00 +13°C° 0 mm 6 mps 726 mmHg 32%
    09:00 +15°C° 0 mm 6 mps 726 mmHg 29%
    10:00 +17°C° 0 mm 6 mps 726 mmHg 26%
    11:00 +21°C° 0 mm 7 mps 726 mmHg 23%
    12:00 +23°C° 0 mm 7 mps 725 mmHg 21%
    13:00 +24°C° 0 mm 7 mps 725 mmHg 18%
    14:00 +27°C° 0 mm 7 mps 724 mmHg 15%
    15:00 +27°C° 0 mm 7 mps 724 mmHg 15%
    16:00 +26°C° 0 mm 7 mps 724 mmHg 15%
    17:00 +26°C° 0 mm 7 mps 724 mmHg 15%
    18:00 +23°C° 0 mm 6 mps 724 mmHg 17%
    19:00 +22°C° 0 mm 6 mps 724 mmHg 19%
    20:00 +20°C° 0 mm 5 mps 725 mmHg 22%
    21:00 +19°C° 0 mm 5 mps 725 mmHg 22%
    22:00 +19°C° 0 mm 6 mps 725 mmHg 22%
    23:00 +17°C° 0 mm 6 mps 725 mmHg 22%
    Show more